Location: Rounton
(54.4000°N, 1.3500°W)
Time: 22:38:14
(UTC+01:00)

Vanguard 1 - Pass Details

Date: 22 February 2024
Orbit: 653 x 3825 km, 34.2° (Epoch: 21 April)

Event Time Altitude Azimuth Distance (km) Brightness Sun altitude
Rises 01:01:19 0° 266° (W) 7,291 14.4 -45.2°
Reaches altitude 10° 01:06:32 10° 259° (W) 6,559 14.0 -45.0°
Enters shadow 01:07:23 12° 258° (WSW) 6,447 13.9 -45.0°
Maximum altitude 01:25:12 35° 204° (SSW) 5,076 - -44.1°
Drops below altitude 10° 01:42:57 10° 148° (SSE) 6,214 - -43.0°
Exits shadow 01:43:20 - 148° (SSE) 6,263 13.9 -43.0°
Sets 01:47:45 0° 140° (SE) 6,880 14.2 -42.6°
